Location: Unspecified
(0.0000°N, 0.0000°E)
Time: 13:44:49
(UTC+00:00)

Amateur Radio Satellites - All Passes

Search period start: 23 January 2018 13:14
Search period end: 24 January 2018 13:14
Location: Unspecified, 0.0000°N, 0.0000°E

Satellite Date Start Highest point End Downlink Frequencies (MHz)
Time Altitude Azimuth
NO-84 23 Jan 13:34:40 13:38:31 79° 124° (SE) 13:42:03 435.350 FM
50 SAT 23 Jan 13:41:18 13:44:23 76° 281° (W) 13:47:29 437.505
Oscar 19 23 Jan 14:15:10 14:18:34 18° 257° (WSW) 14:21:59 437.125/150
UKube-1 23 Jan 14:19:15 14:23:21 45° 282° (WNW) 14:27:29 .
Gurwin Techsat 1B 23 Jan 14:21:37 14:25:39 22° 257° (WSW) 14:29:41 435.225
SO-50 23 Jan 14:23:34 14:27:15 22° 68° (ENE) 14:30:57 436.795
DX 1 23 Jan 14:38:46 14:40:54 13° 282° (WNW) 14:43:03 434.975-435.025
JUGNU 23 Jan 14:54:59 15:00:18 35° 20° (NNE) 15:05:39 437.505
ITUPSAT 1 23 Jan 15:03:47 15:08:31 61° 102° (ESE) 15:13:14 437.325
MOZHAYETS 4 23 Jan 15:09:30 15:13:54 49° 282° (WNW) 15:18:19
AO-7 23 Jan 15:11:02 15:19:23 87° 73° (ENE) 15:27:45 .
CUBESAT XI-V 23 Jan 15:19:53 15:24:03 35° 102° (ESE) 15:28:13 437.345
SRMSAT 23 Jan 15:21:20 15:23:45 12° 9° (N) 15:26:10 437.500
ITAMSAT 1 23 Jan 15:25:30 15:30:41 75° 77° (ENE) 15:35:50 435.822/435.867
BEESAT 23 Jan 15:41:49 15:46:16 40° 283° (WNW) 15:50:44 436.000
M-CUBED/EXP-1 PRIME 23 Jan 15:59:15 16:03:16 30° 75° (ENE) 16:07:08 437.505
DOVE 4 23 Jan 16:02:01 16:06:17 37° 79° (E) 16:10:17 437.250
SO-50 23 Jan 16:03:57 16:07:28 20° 248° (WSW) 16:11:00 436.795
KKS-1 23 Jan 16:19:48 16:22:56 19° 103° (ESE) 16:26:04 437.445
RS-15 23 Jan 16:42:01 16:49:02 19° 67° (ENE) 16:55:52 29.354- 29.394
nSIGHT-1 23 Jan 16:42:12 16:45:22 90° 114° (ESE) 16:48:31 .
JUGNU 23 Jan 16:43:28 16:49:23 84° 202° (SSW) 16:55:21 437.505
XW-2F 23 Jan 16:53:37 16:54:49 11° 79° (ENE) 16:56:01 145.980 - 146.000
CUBESAT XI-V 23 Jan 17:00:41 17:01:07 10° 282° (WNW) 17:01:34 437.345
XW-2D 23 Jan 17:04:06 17:06:58 20° 79° (E) 17:09:49 145.860 - 145.880
ISS 23 Jan 17:06:43 17:09:58 70° 306° (NW) 17:13:11 437.550
SRMSAT 23 Jan 17:08:52 17:13:40 25° 17° (NNE) 17:18:29 437.500
CUTE-I 23 Jan 17:19:02 17:23:33 28° 77° (ENE) 17:28:00 437.470
XW-2B 23 Jan 17:21:08 17:24:40 35° 79° (E) 17:28:11 145.730 - 145.750
M-CUBED/EXP-1 PRIME 23 Jan 17:34:58 17:37:17 14° 253° (WSW) 17:39:33 437.505
XW-2C 23 Jan 17:51:20 17:55:10 67° 259° (W) 17:58:58 145.795 - 145.815
CUTE 1.7 + AOD 2 23 Jan 17:52:38 17:55:52 21° 79° (ENE) 17:59:03 437.475
LilacSat-2 23 Jan 17:52:49 17:56:37 56° 259° (W) 18:00:24 437.200
KKS-1 23 Jan 17:56:02 17:59:12 19° 282° (WNW) 18:02:23 437.445
HO-68 23 Jan 18:01:22 18:07:58 40° 76° (ENE) 18:14:30 435.675
STARS 23 Jan 18:02:43 18:07:00 49° 282° (WNW) 18:11:17 437.465
KAITUO 1B 23 Jan 18:18:20 18:21:53 38° 259° (WSW) 18:25:24 145.475/437.950
NUDT-PHONESAT 23 Jan 18:24:07 18:27:31 33° 259° (WSW) 18:30:54 437.300
XW-2F 23 Jan 18:25:41 18:28:38 21° 258° (WSW) 18:31:34 145.980 - 146.000
JUGNU 23 Jan 18:33:18 18:38:31 31° 199° (SSW) 18:43:47 437.505
CUBEBUG 2 23 Jan 18:33:21 18:37:22 43° 78° (ENE) 18:41:28 437.445
UWE-3 23 Jan 18:33:29 18:36:39 20° 78° (ENE) 18:39:51 435.000/436.395/437.385
FO-29 23 Jan 18:39:14 18:41:41 13° 106° (ESE) 18:44:14 435.910
XW-2D 23 Jan 18:39:20 18:40:51 12° 258° (WSW) 18:42:21 145.860 - 145.880
BEESAT 3 23 Jan 18:42:40 18:45:42 23° 68° (ENE) 18:48:43 437.485
AAUSAT CUBESAT 2 23 Jan 18:43:05 18:45:54 18° 79° (E) 18:48:43 437.432
RS-15 23 Jan 18:50:10 19:01:07 67° 249° (WSW) 19:11:52 29.354- 29.394
ZACube-1 23 Jan 18:51:16 18:53:46 15° 78° (ENE) 18:56:19 437.345
AO-73 23 Jan 18:56:14 18:58:42 15° 78° (ENE) 19:01:13 145.935
SRMSAT 23 Jan 18:57:08 19:03:05 63° 22° (NNE) 19:09:01 437.500
CUTE-I 23 Jan 18:59:39 19:03:18 19° 257° (WSW) 19:06:55 437.470
SEEDS 23 Jan 19:09:00 19:13:09 54° 258° (WSW) 19:17:16 437.485
PCSat 23 Jan 19:10:01 19:14:43 31° 71° (ENE) 19:19:25 145.827
STRAND 1 23 Jan 19:25:04 19:30:08 59° 282° (WNW) 19:35:13 437.568
Oscar 11 23 Jan 19:25:29 19:28:48 21° 78° (ENE) 19:32:06 .
CUTE 1.7 + AOD 2 23 Jan 19:28:51 19:31:24 15° 258° (WSW) 19:33:56 437.475
XW-2A 23 Jan 19:32:42 19:36:09 90° 34° (NE) 19:39:33 145.665 - 145.685
BEESAT 2 23 Jan 19:37:41 19:40:50 23° 68° (ENE) 19:43:58 435.950
HO-68 23 Jan 19:50:03 19:55:20 22° 255° (WSW) 20:00:37 435.675
UWE-3 23 Jan 20:10:10 20:12:50 16° 259° (W) 20:15:32 435.000/436.395/437.385
AAUSAT CUBESAT 2 23 Jan 20:18:23 20:21:04 17° 258° (WSW) 20:23:45 437.432
FO-29 23 Jan 20:21:10 20:26:16 43° 281° (WNW) 20:31:56 435.910
BEESAT 3 23 Jan 20:22:12 20:22:57 10° 248° (WSW) 20:23:41 437.485
JUGNU 23 Jan 20:24:51 20:28:07 15° 192° (SSW) 20:31:24 437.505
ZACube-1 23 Jan 20:26:25 20:29:45 22° 259° (WSW) 20:33:10 437.345
DELFI C3 23 Jan 20:27:14 20:29:45 16° 79° (E) 20:32:14 145.870
AO-73 23 Jan 20:31:16 20:34:39 22° 259° (W) 20:38:05 145.935
SRMSAT 23 Jan 20:46:32 20:52:18 48° 201° (SSW) 20:58:05 437.500
PCSat 23 Jan 20:54:22 20:57:50 17° 250° (WSW) 21:01:19 145.827
Oscar 11 23 Jan 21:02:02 21:04:39 16° 258° (WSW) 21:07:16 .
AO-85 23 Jan 21:07:39 21:12:35 39° 68° (ENE) 21:17:34 145.980
YUBILEINY 23 Jan 21:16:59 21:23:44 24° 93° (E) 21:30:24 435.215
BEESAT 2 23 Jan 21:17:16 21:18:16 11° 248° (WSW) 21:19:16 435.950
TIGRISAT 23 Jan 21:24:30 21:29:08 81° 101° (ESE) 21:33:42 435.000
UNISAT 6 23 Jan 21:40:45 21:45:15 52° 282° (WNW) 21:49:41 437.425
DELFI C3 23 Jan 22:01:47 22:04:12 16° 258° (WSW) 22:06:36 145.870
Max Valier Satellite 23 Jan 22:02:28 22:05:28 23° 259° (W) 22:08:27 145.860
O/OREOS (USA 219) 23 Jan 22:05:09 22:08:42 22° 105° (ESE) 22:12:14 437.305
ESTCUBE 1 23 Jan 22:08:43 22:10:06 11° 78° (ENE) 22:11:29 437.505/2401.250
EO-88 23 Jan 22:13:49 22:16:55 26° 259° (WSW) 22:19:59 145.990 - 145.960
FALCONSAT 3 23 Jan 22:22:10 22:25:46 53° 143° (SE) 22:29:22 435.103
PRISM 23 Jan 22:32:05 22:36:10 69° 281° (W) 22:40:17 437.425
SRMSAT 23 Jan 22:37:31 22:41:50 20° 195° (SSW) 22:46:07 437.500
AO-85 23 Jan 22:49:54 22:52:50 15° 248° (WSW) 22:55:46 145.980
POLYITAN 1 23 Jan 23:02:50 23:06:13 23° 102° (ESE) 23:09:35 437.675
AIST 2D 23 Jan 23:09:19 23:12:34 40° 281° (W) 23:15:50 435.315
YUBILEINY 23 Jan 23:11:56 23:20:07 43° 273° (W) 23:28:18 435.215
NANOSAT C BR1 23 Jan 23:15:08 23:18:49 29° 102° (ESE) 23:22:31 145.865
LO-87 23 Jan 23:23:08 23:26:16 30° 259° (WSW) 23:29:25 145.935 - 145.965
VELOX 1 23 Jan 23:31:31 23:32:19 10° 78° (ENE) 23:33:07 145.980
QB50P2 23 Jan 23:31:55 23:36:10 76° 103° (ESE) 23:40:24 145.880/145.840
ESTCUBE 1 23 Jan 23:42:34 23:46:37 32° 258° (WSW) 23:50:39 437.505/2401.250
O/OREOS (USA 219) 23 Jan 23:45:09 23:47:49 15° 284° (WNW) 23:50:30 437.305
DUCHIFAT 1 23 Jan 23:56:26 00:00:39 79° 282° (WNW) 00:04:51 145.980
EO-79 24 Jan 00:01:51 00:05:53 44° 282° (WNW) 00:09:56 145.935-145.965
FALCONSAT 3 24 Jan 00:02:56 00:04:45 13° 324° (NW) 00:06:35 435.103
JUGNU 24 Jan 00:05:58 00:08:27 13° 171° (S) 00:10:55 437.505
SRMSAT 24 Jan 00:30:19 00:31:53 11° 186° (S) 00:33:28 437.500
SPROUT 24 Jan 00:37:12 00:40:59 32° 258° (WSW) 00:44:47 437.525
POLYITAN 1 24 Jan 00:39:34 00:41:42 14° 282° (WNW) 00:43:51 437.675
BUGSAT 1 24 Jan 00:45:25 00:49:38 75° 101° (ESE) 00:53:49 437.445
NANOSAT C BR1 24 Jan 00:53:34 00:54:14 10° 282° (WNW) 00:54:55 145.865
AO-91 24 Jan 00:55:49 01:00:59 67° 102° (ESE) 01:06:21 145.960
VELOX 1 24 Jan 01:04:34 01:08:29 32° 258° (WSW) 01:12:23 145.980
Oscar 19 24 Jan 01:08:03 01:13:09 73° 102° (ESE) 01:18:16 437.125/150
DX 1 24 Jan 01:10:40 01:14:35 33° 78° (ENE) 01:18:29 434.975-435.025
NO-84 24 Jan 01:15:57 01:19:05 54° 58° (ENE) 01:22:31 435.350 FM
50 SAT 24 Jan 01:16:23 01:19:07 30° 79° (E) 01:21:51 437.505
Gurwin Techsat 1B 24 Jan 01:19:07 01:24:22 68° 102° (ESE) 01:29:40 435.225
AO-7 24 Jan 01:48:25 01:53:25 17° 107° (ESE) 01:58:24 .
MOZHAYETS 4 24 Jan 01:51:31 01:53:37 13° 78° (ENE) 01:55:44
JUGNU 24 Jan 01:53:24 01:58:13 25° 163° (SSE) 02:03:00 437.505
SRMSAT 24 Jan 02:21:27 02:22:17 10° 176° (S) 02:23:07 437.500
ITAMSAT 1 24 Jan 02:24:27 02:26:22 12° 103° (ESE) 02:28:18 435.822/435.867
BEESAT 24 Jan 02:27:10 02:30:35 20° 77° (ENE) 02:33:59 436.000
UKube-1 24 Jan 02:27:46 02:31:40 34° 258° (WSW) 02:35:34 .
SO-50 24 Jan 02:35:49 02:39:55 36° 112° (ESE) 02:43:59 436.795
ITUPSAT 1 24 Jan 03:25:58 03:30:43 68° 257° (WSW) 03:35:26 437.325
MOZHAYETS 4 24 Jan 03:26:31 03:30:29 29° 258° (WSW) 03:34:28
CUBESAT XI-V 24 Jan 03:37:36 03:42:17 65° 78° (ENE) 03:46:55 437.345
AO-7 24 Jan 03:37:38 03:45:46 60° 286° (WNW) 03:53:55 .
JUGNU 24 Jan 03:41:34 03:47:28 62° 159° (SSE) 03:53:19 437.505
M-CUBED/EXP-1 PRIME 24 Jan 03:58:48 04:01:13 19° 107° (ESE) 04:03:42 437.505
ITAMSAT 1 24 Jan 04:00:40 04:05:31 41° 283° (WNW) 04:10:26 435.822/435.867
BEESAT 24 Jan 04:04:32 04:08:04 21° 257° (WSW) 04:11:36 436.000
SRMSAT 24 Jan 04:08:34 04:12:25 17° 166° (SSE) 04:16:15 437.500
nSIGHT-1 24 Jan 04:13:51 04:16:53 44° 55° (NE) 04:19:57 .
DOVE 4 24 Jan 04:20:59 04:25:46 74° 102° (ESE) 04:30:53 437.250
RS-15 24 Jan 04:23:44 04:30:25 16° 113° (ESE) 04:37:09 29.354- 29.394
KKS-1 24 Jan 04:31:36 04:35:20 27° 78° (ENE) 04:39:03 437.445
ISS 24 Jan 04:40:33 04:43:47 64° 55° (NE) 04:47:02 437.550
XW-2D 24 Jan 04:58:01 05:00:15 15° 102° (ESE) 05:02:29 145.860 - 145.880
XW-2B 24 Jan 05:14:47 05:17:58 27° 102° (ESE) 05:21:09 145.730 - 145.750
JUGNU 24 Jan 05:30:49 05:36:31 47° 339° (NNW) 05:42:10 437.505
XW-2C 24 Jan 05:44:47 05:48:29 87° 281° (W) 05:52:14 145.795 - 145.815
LilacSat-2 24 Jan 05:46:59 05:50:41 71° 281° (WNW) 05:54:26 437.200
HO-68 24 Jan 05:53:10 05:59:26 33° 105° (ESE) 06:05:42 435.675
SRMSAT 24 Jan 05:56:28 06:02:00 40° 160° (SSE) 06:07:31 437.500
CUTE-I 24 Jan 05:57:21 06:02:41 83° 103° (ESE) 06:08:04 437.470
CUTE 1.7 + AOD 2 24 Jan 05:58:30 06:01:55 25° 102° (ESE) 06:05:20 437.475
KKS-1 24 Jan 06:09:40 06:11:36 13° 257° (WSW) 06:13:32 437.445
KAITUO 1B 24 Jan 06:10:03 06:13:36 52° 281° (W) 06:17:12 145.475/437.950
STARS 24 Jan 06:13:46 06:17:42 34° 258° (WSW) 06:21:38 437.465
NUDT-PHONESAT 24 Jan 06:14:43 06:18:12 46° 281° (WNW) 06:21:43 437.300
XW-2F 24 Jan 06:18:16 06:21:23 26° 281° (WNW) 06:24:33 145.980 - 146.000
STRAND 1 24 Jan 06:20:07 06:23:50 21° 77° (ENE) 06:27:33 437.568
RS-15 24 Jan 06:30:32 06:42:36 81° 290° (WNW) 06:54:57 29.354- 29.394
XW-2D 24 Jan 06:32:02 06:34:08 15° 281° (W) 06:36:15 145.860 - 145.880
BEESAT 3 24 Jan 06:33:38 06:36:47 23° 112° (ESE) 06:39:57 437.485
UWE-3 24 Jan 06:43:58 06:47:54 30° 101° (E) 06:51:44 435.000/436.395/437.385
CUBEBUG 2 24 Jan 06:45:15 06:49:53 70° 101° (E) 06:54:25 437.445
AAUSAT CUBESAT 2 24 Jan 06:46:01 06:49:00 19° 102° (ESE) 06:51:59 437.432
ZACube-1 24 Jan 07:00:22 07:03:37 21° 101° (E) 07:06:50 437.345
AO-73 24 Jan 07:05:01 07:08:11 20° 101° (E) 07:11:18 145.935
SEEDS 24 Jan 07:14:04 07:18:01 45° 281° (WNW) 07:22:00 437.485
XW-2A 24 Jan 07:15:00 07:18:06 38° 102° (ESE) 07:21:12 145.665 - 145.685
JUGNU 24 Jan 07:21:40 07:25:50 20° 344° (NNW) 07:29:59 437.505
BEESAT 2 24 Jan 07:30:03 07:33:17 24° 112° (ESE) 07:36:32 435.950
Oscar 11 24 Jan 07:33:41 07:37:20 27° 102° (ESE) 07:40:59 .
CUTE 1.7 + AOD 2 24 Jan 07:35:49 07:37:28 12° 281° (WNW) 07:39:08 437.475
HO-68 24 Jan 07:41:02 07:46:48 27° 285° (WNW) 07:52:38 435.675
SRMSAT 24 Jan 07:45:19 07:51:13 74° 338° (NNW) 07:57:08 437.500
PCSat 24 Jan 07:45:27 07:50:51 84° 289° (WNW) 07:56:15 145.827
FO-29 24 Jan 07:53:07 08:00:45 84° 257° (WSW) 08:07:36 435.910
STRAND 1 24 Jan 07:58:46 08:02:45 23° 257° (WSW) 08:06:43 437.568
BEESAT 3 24 Jan 08:12:40 08:14:03 12° 292° (WNW) 08:15:25 437.485
AAUSAT CUBESAT 2 24 Jan 08:21:49 08:24:10 15° 281° (WNW) 08:26:31 437.432
UWE-3 24 Jan 08:22:23 08:24:01 12° 283° (WNW) 08:25:39 435.000/436.395/437.385
DELFI C3 24 Jan 08:25:02 08:27:24 15° 102° (ESE) 08:29:45 145.870
ZACube-1 24 Jan 08:36:55 08:39:37 16° 282° (WNW) 08:42:18 437.345
AO-73 24 Jan 08:41:24 08:44:08 16° 282° (WNW) 08:46:50 145.935
RS-15 24 Jan 08:53:19 08:55:12 10° 295° (WNW) 08:57:06 29.354- 29.394
BEESAT 2 24 Jan 09:09:38 09:10:45 11° 293° (WNW) 09:11:51 435.950
Oscar 11 24 Jan 09:11:48 09:13:12 11° 282° (WNW) 09:14:35 .
JUGNU 24 Jan 09:14:33 09:15:41 11° 353° (N) 09:16:49 437.505
AO-85 24 Jan 09:21:21 09:25:08 59° 112° (ESE) 09:28:55 145.980
SRMSAT 24 Jan 09:35:33 09:40:33 28° 342° (NNW) 09:45:32 437.500
TIGRISAT 24 Jan 09:37:33 09:41:50 65° 258° (WSW) 09:46:10 435.000
YUBILEINY 24 Jan 09:48:53 09:57:08 48° 87° (E) 10:05:21 435.215
Max Valier Satellite 24 Jan 09:52:49 09:56:04 31° 281° (W) 09:59:21 145.860
UNISAT 6 24 Jan 09:54:15 09:58:07 33° 259° (WSW) 10:02:03 437.425
DELFI C3 24 Jan 09:59:14 10:01:50 17° 281° (W) 10:04:29 145.870
EO-88 24 Jan 10:02:44 10:06:06 38° 281° (W) 10:09:30 145.990 - 145.960
FALCONSAT 3 24 Jan 10:05:01 10:08:34 49° 38° (NE) 10:12:07 435.103
O/OREOS (USA 219) 24 Jan 10:15:24 10:19:33 37° 76° (ENE) 10:23:44 437.305
ESTCUBE 1 24 Jan 10:21:01 10:23:57 17° 102° (ESE) 10:26:53 437.505/2401.250
PRISM 24 Jan 10:34:35 10:38:38 63° 258° (WSW) 10:42:39 437.425
AIST 2D 24 Jan 10:54:36 10:58:09 78° 259° (W) 11:01:40 435.315
POLYITAN 1 24 Jan 11:08:38 11:12:13 28° 78° (ENE) 11:15:49 437.675
LO-87 24 Jan 11:10:13 11:13:42 51° 282° (WNW) 11:17:13 145.935 - 145.965
SPROUT 24 Jan 11:10:32 11:12:11 12° 102° (ESE) 11:13:50 437.525
NANOSAT C BR1 24 Jan 11:20:28 11:24:17 35° 78° (ENE) 11:28:07 145.865
SRMSAT 24 Jan 11:27:33 11:30:21 13° 349° (N) 11:33:09 437.500
QB50P2 24 Jan 11:38:02 11:42:15 87° 255° (WSW) 11:46:28 145.880/145.840
VELOX 1 24 Jan 11:40:55 11:43:32 16° 103° (ESE) 11:46:10 145.980
FALCONSAT 3 24 Jan 11:45:34 11:47:34 14° 216° (SW) 11:49:33 435.103
YUBILEINY 24 Jan 11:47:34 11:53:31 21° 267° (W) 11:59:31 435.215
ESTCUBE 1 24 Jan 11:57:10 12:00:28 21° 282° (WNW) 12:03:47 437.505/2401.250
DUCHIFAT 1 24 Jan 12:01:38 12:05:46 65° 259° (WSW) 12:09:54 145.980
Oscar 19 24 Jan 12:06:21 12:07:49 11° 77° (ENE) 12:09:16 437.125/150
EO-79 24 Jan 12:07:55 12:11:46 35° 258° (WSW) 12:15:37 145.935-145.965
Gurwin Techsat 1B 24 Jan 12:21:11 12:23:16 12° 77° (ENE) 12:25:20 435.225
SPROUT 24 Jan 12:44:11 12:47:47 26° 282° (WNW) 12:51:23 437.525
POLYITAN 1 24 Jan 12:46:37 12:47:43 11° 258° (WSW) 12:48:49 437.675
BUGSAT 1 24 Jan 12:48:22 12:52:24 82° 79° (ENE) 12:56:27 437.445
JUGNU 24 Jan 12:52:09 12:55:50 17° 14° (NNE) 12:59:32 437.505
50 SAT 24 Jan 12:52:58 12:53:44 11° 102° (ESE) 12:54:29 437.505
NO-84 24 Jan 12:57:59 13:01:44 45° 123° (ESE) 13:05:12 435.350 FM
UKube-1 24 Jan 13:02:18 13:04:06 12° 103° (ESE) 13:05:53 .
